Regional Weather Roundup
Issued by NWS

Home | Current Version | Previous Version | Text Only | Print | Product List | Glossary On
Versions: 1 2 3 4 5 6 7 8 9 10 11 12 13 14 15 16 17 18 19 20 21 22 23 24 25 26 27
000
ASUS45 KSLC 232310
RWRUT

UTAH REGIONAL WEATHER ROUNDUP
NATIONAL WEATHER SERVICE SALT LAKE CITY UT
500 PM MDT MON APR 23 2018

UTZ001>011-023>025-240000-

NORTHERN UTAH

CITY           SKY/WX    TMP DP  RH WIND       PRES   REMARKS
BRIGHAM CITY   SUNNY     62  20  19 NW9       30.16S
DUGWAY         PTSUNNY   67  17  14 NW7       30.12F
HILL AFB       NOT AVBL
LOGAN          MOSUNNY   61  27  27 N10       30.15F
OGDEN          MOSUNNY   61  16  17 W9        30.14F
SALT LAKE CITY PTSUNNY   65  18  16 NW15      30.15S
TOOELE VALLEY  MOSUNNY   63  28  27 N13       30.16S
WENDOVER       MOSUNNY   66  19  16 NE9       30.12S
HEBER CITY       N/A     63  25  23 NW12G17   30.12R
WEST JORDAN    MOSUNNY   61  28  28 NW21      30.15S

$$

UTZ011>015-024>027-240000-

CENTRAL/NORTHEAST UTAH

CITY           SKY/WX    TMP DP  RH WIND       PRES   REMARKS
PROVO AIRPORT  PTSUNNY   64  34  32 NW18G26   30.13R
MOAB/CANYONLAN MOSUNNY   80  22  11 NW20G36   29.92F
DELTA          PTSUNNY   68  27  21 N10       30.09F
PRICE          PTSUNNY   66  19  16 W14G24    30.07F
RICHFIELD      SUNNY     70  28  21 W16G24    30.06F
ROOSEVELT      MOSUNNY   72  18  13 W23G30    30.05R
VERNAL         PTSUNNY   71  18  13 SW15      30.01S

$$

UTZ013>016-019>022-027-240000-

SOUTHERN UTAH

CITY           SKY/WX    TMP DP  RH WIND       PRES   REMARKS
BRYCE CANYON   PTSUNNY   67  18  15 N14       30.17F
CEDAR CITY     MOSUNNY   74  18  12 S14G25    30.04F
MILFORD        PTSUNNY   71  36  27 MISG      30.06F
ST GEORGE      PTCLDY    87  22   9 W18G24    29.92F
HANKSVILLE     PTSUNNY   81  21  11 W7        29.95F
KANAB          SUNNY     82  18   9 SW7G18    30.06F
BLANDING         N/A     76  15  10 W15G24    30.12F

$$

REGIONAL REPORTS     COLORADO/ARIZONA

CITY           SKY/WX    TMP DP  RH WIND       PRES   REMARKS
CRAIG, CO      PTSUNNY   61  37  41 N17G29    30.04R
GRAND JUNCTION MOSUNNY   79  21  11 W17G28    29.96F
RIFLE, CO      PTSUNNY   74  20  13 W15G29    29.99S
MONTROSE, CO   MOSUNNY   74  15  10 N5        30.01F
CORTEZ, CO     SUNNY     76   5   6 W7        30.07F
COLORADO CITY    N/A     82  21  10 W15G24    30.07F
PAGE, AZ       SUNNY     85  18   8 N6        29.95F
GRAND CANYON   SUNNY     74   9   8 S10G23    30.14F
KINGMAN, AZ    SUNNY     86  22   9 SW14      29.99F
FLAGSTAFF, AZ  SUNNY     70  16  12 SW14G23   30.18F

$$

REGIONAL REPORTS    NEVADA/IDAHO/WYOMING

CITY           SKY/WX    TMP DP  RH WIND       PRES   REMARKS
LAS VEGAS, NV  MOSUNNY   93  23   8 S10G18    29.86F
ELY, NY        CLOUDY    64  12  13 W6        30.16S
ELKO, NV       SUNNY     64  20  18 SW13      30.16F
POCATELLO, ID  PTSUNNY   51  36  56 NE15      30.26R
BURLEY, ID     SUNNY     58  20  22 NW9       30.19F
FORT BRIDGER,    N/A     57  13  17 W23G35    30.19S
EVANSTON, WY   SUNNY     54  15  21 NW16G25   30.19R
ROCK SPRINGS,  SUNNY     58  14  17 W28G38    30.11S
KEMMERER, WY   SUNNY     50  16  25 W18G28    30.20R

$$




USA.gov is the U.S. government's official web portal to all federal, state and local government web resources and services.